Overview Statistics Trail Chart Weather Telemetry Raw packets
 

This is the latest recevied weather packets stored in our database for station/object Kirchdorf. If no packets are shown the sender has not sent any weather packets the latest 10 day(s).

<< 15 16 17 18 19 >>
Time Temp. Humidity Pressure Rain* Wind** Luminosity Snow
1787805129 15.56° C 92% 1013.5 hPa 0 mm - - -
1787803330 15.56° C 92% 1013.6 hPa 0 mm - - -
1787801529 15.56° C 92% 1013.7 hPa 0 mm - - -
1787799730 16.11° C 91% 1014.1 hPa 0 mm - - -
1787797929 16.11° C 91% 1013.9 hPa 0 mm - - -
1787796130 16.67° C 91% 1013.9 hPa 0 mm - - -
1787794330 16.67° C 90% 1014 hPa 0 mm - - -
1787792530 17.22° C 90% 1014.1 hPa 0 mm - - -
1787790731 17.22° C 89% 1014.2 hPa 0 mm - - -
1787788931 17.78° C 88% 1014.3 hPa 0 mm - - -
1787787131 18.33° C 87% 1014.6 hPa 0 mm - - -
1787785331 18.33° C 86% 1014.4 hPa 0 mm - - -
1787783531 18.89° C 85% 1014.5 hPa 0 mm - - -
1787781731 19.44° C 83% 1014.6 hPa 0 mm - - -
1787779931 20° C 82% 1014.7 hPa 0 mm - - -
1787778131 20.56° C 81% 1014.7 hPa 0 mm - - -
1787776332 21.11° C 80% 1015 hPa 0 mm - - -
1787774532 21.67° C 77% 1015.2 hPa 0 mm - - -
1787772730 22.78° C 76% 1015.2 hPa 0 mm - - -
1787770931 23.33° C 74% 1014.9 hPa 0 mm - - -
1787769131 24.44° C 71% 1014.9 hPa 0 mm - - -
1787767330 25° C 70% 1014.8 hPa 0 mm - - -
1787765530 25.56° C 67% 1014.8 hPa 0 mm - - -
1787763731 26.11° C 62% 1014.8 hPa 0 mm - - -
1787761931 27.22° C 59% 1014.9 hPa 0 mm - - -

* Rain since midnight (hover to see other rain measurements)
** Current wind speed in m/s (hover to see current wind gust speed)